STARLINK-31896 (59851 NORAD) Tracking and Keplerian Element Data

This shows tracking and keplerian element data for the satellite.

Feedback or suggestion? Click here.




ElementValue
Catalog59851
NameSTARLINK-31896
Epoch Orbit375
Epoch Day160.16667824
Epoch Year2024
RAAN318.6074
Inclination43.0008
Eccentricity0.0001769
Argument of Perigee281.9424
Mean Anonmoly92.1412
Mean Motion15.6665135
Decay Rate-0.01740567
L11 59851U 24097S 24160.16667824 -.01740567 00000+0 -18374-1 0 9998
L22 59851 43.0008 318.6074 0001769 281.9424 92.1412 15.66651350 3759



Live tracking and technical data element details for STARLINK-31896 (NORAD 59851). STARLINK-31896 can be tracked NOW for your location showing map with azimuth and elevation plus other details from your city location.







IsCatalogInMostPopularTable: catalog: 59851, numindb: 7
Update: records affected: 1



GetName: 59851 STARLINK-31896

Hit Count: updated at: Tue, 16 Jul 2024 03:32:08 GMT